This demonstration page uses our WeatherBlox Daily Observations layout. Learn more.

Left ArrowRight Arrow

Hourly Observations for November 25, 2015

Temp ( °F °C ) Dew Point ( °F °C ) Humidity (%) Winds ( mph kmh ) Pressure ( in mb ) Visibility ( mi km ) Precip ( " mm )
12:51 am 00:51 Clear 43 6.1 25 -3.9 49 49 ESE 5 7 29.85 1011 10 16.0934 N/A
1:51 am 01:51 Clear 43 6.1 25 -3.9 49 49 NW 3 6 29.84 1011 10 16.0934 N/A
2:51 am 02:51 Clear 41 5 25 -3.9 53 53 ENE 5 7 29.83 1010 10 16.0934 N/A
3:51 am 03:51 Clear 52 11.1 25 -3.9 35 35 ESE 9 15 29.8 1009 10 16.0934 N/A
4:51 am 04:51 Clear 41 5 25 -3.9 53 53 NNW 7 11 29.82 1010 10 16.0934 N/A
5:51 am 05:51 Clear 42 5.6 25 -3.9 51 51 ENE 5 7 29.83 1010 10 16.0934 N/A
6:51 am 06:51 Clear 40 4.4 26 -3.3 58 58 N N/A 29.85 1011 10 16.0934 N/A
7:51 am 07:51 Mostly Sunny 46 7.8 27 -2.8 47 47 VRB 5 7 29.85 1011 10 16.0934 N/A
8:51 am 08:51 Sunny 49 9.4 28 -2.2 44 44 ESE 3 6 29.87 1012 10 16.0934 N/A
9:51 am 09:51 Partly Cloudy 54 12.2 29 -1.7 38 38 E 5 7 29.85 1011 10 16.0934 N/A
10:51 am 10:51 Mostly Sunny 66 18.9 26 -3.3 22 22 E 10 17 29.83 1010 10 16.0934 N/A
11:51 am 11:51 Cloudy 69 20.6 28 -2.2 22 22 E 8 13 29.78 1009 10 16.0934 N/A
12:51 pm 12:51 Mostly Cloudy 70 21.1 29 -1.7 22 22 NE 9 15 29.75 1007 10 16.0934 N/A
1:51 pm 13:51 Partly Cloudy 72 22.2 33 0.6 24 24 N N/A 29.72 1006 10 16.0934 N/A
2:51 pm 14:51 Sunny 73 22.8 34 1.1 24 24 N N/A 29.71 1006 10 16.0934 N/A
3:51 pm 15:51 Mostly Cloudy 70 21.1 35 1.7 28 28 N N/A 29.7 1006 10 16.0934 N/A
4:51 pm 16:51 Mostly Cloudy 69 20.6 35 1.7 29 29 VRB 5 7 29.72 1006 10 16.0934 N/A
5:51 pm 17:51 Cloudy with Rain 61 16.1 44 6.7 54 54 WSW 9 15 29.76 1008 8 12.87472 N/A
6:51 pm 18:51 Cloudy 60 15.6 50 10 70 70 NE 12 19 29.76 1008 10 16.0934 0.01 0.254
7:51 pm 19:51 Cloudy 58 14.4 53 11.7 84 84 ESE 10 17 29.78 1009 10 16.0934 0.02 0.508
8:51 pm 20:51 Cloudy 59 15 52 11.1 78 78 E 9 15 29.8 1009 10 16.0934 0.01 0.254
9:51 pm 21:51 Mostly Cloudy 60 15.6 51 10.6 72 72 SSE 9 15 29.79 1009 10 16.0934 N/A
10:51 pm 22:51 Mostly Cloudy 58 14.4 51 10.6 78 78 ENE 10 17 29.78 1008 10 16.0934 N/A
11:51 pm 23:51 Mostly Cloudy 63 17.2 48 8.9 58 58 undefined N/A 29.75 1008 10 16.0934 N/A

Powered by AerisWeather